Location: Fort Wayne
(41.1310°N, 85.1290°W)
Time: 11:45:28
(UTC-04:00)

Amateur Radio Satellites - All Passes

Search period start: 24 June 2017 11:15
Search period end: 25 June 2017 11:15
Location: Fort Wayne, 41.1310°N, 85.1290°W

Satellite Date Start Highest point End Downlink Frequencies (MHz)
Time Altitude Azimuth
FO-29 24 Jun 11:15:53 11:21:38 52° 262° (W) 11:28:13 435.910
AIST 2D 24 Jun 11:32:17 11:35:14 25° 71° (ENE) 11:38:11 435.315
TIGRISAT 24 Jun 11:32:23 11:36:38 38° 263° (W) 11:40:59 435.000
POLYITAN 1 24 Jun 11:44:52 11:48:02 21° 66° (ENE) 11:51:13 437.675
AO-73 24 Jun 11:51:47 11:53:37 12° 298° (WNW) 11:55:26 145.935
PRISM 24 Jun 11:53:12 11:55:52 17° 266° (W) 11:58:33 437.425
QB50P2 24 Jun 11:55:02 11:58:41 28° 69° (ENE) 12:02:21 145.880/145.840
PCSat 24 Jun 11:57:46 11:59:36 12° 102° (ESE) 12:01:26 145.827
UNISAT 6 24 Jun 12:16:36 12:18:46 13° 270° (W) 12:20:57 437.425
BUGSAT 1 24 Jun 12:18:52 12:20:15 11° 62° (ENE) 12:21:39 437.445
EO-79 24 Jun 12:19:34 12:23:38 47° 73° (ENE) 12:27:45 145.935-145.965
EO-88 24 Jun 12:25:47 12:28:44 23° 290° (WNW) 12:31:39 145.990 - 145.960
DUCHIFAT 1 24 Jun 12:35:14 12:39:23 58° 74° (ENE) 12:43:33 145.980
DELFI C3 24 Jun 12:40:29 12:42:24 13° 295° (WNW) 12:44:20 145.870
Oscar 19 24 Jun 12:40:36 12:41:21 10° 57° (ENE) 12:42:05 437.125/150
NANOSAT C BR1 24 Jun 12:42:52 12:47:05 80° 77° (ENE) 12:51:22 145.865
ESTCUBE 1 24 Jun 12:48:00 12:52:15 41° 98° (E) 12:56:29 437.505/2401.250
Tancredo 1 24 Jun 12:49:05 12:50:16 12° 358° (N) 12:51:27 437.200
ISS 24 Jun 12:50:06 12:52:00 14° 352° (N) 12:53:55 437.550
LO-87 24 Jun 12:52:33 12:56:12 88° 284° (WNW) 12:59:50 145.935 - 145.965
VELOX 1 24 Jun 12:57:49 12:59:32 12° 90° (E) 13:01:15 145.980
AIST 2D 24 Jun 13:05:50 13:08:24 19° 266° (W) 13:10:59 435.315
POLYITAN 1 24 Jun 13:19:40 13:23:34 35° 262° (W) 13:27:31 437.675
Gurwin Techsat 1B 24 Jun 13:20:02 13:23:13 16° 61° (ENE) 13:26:25 435.225
SPROUT 24 Jun 13:27:53 13:31:38 28° 96° (E) 13:35:22 437.525
QB50P2 24 Jun 13:30:56 13:34:25 24° 265° (W) 13:37:57 145.880/145.840
PCSat 24 Jun 13:36:44 13:42:09 89° 300° (WNW) 13:47:37 145.827
AO-7 24 Jun 13:40:47 13:42:41 11° 41° (NE) 13:44:36 .
BUGSAT 1 24 Jun 13:50:57 13:55:01 65° 258° (WSW) 13:59:12 437.445
EO-79 24 Jun 13:57:19 13:59:39 14° 269° (W) 14:02:01 145.935-145.965
DUCHIFAT 1 24 Jun 14:13:50 14:15:24 12° 270° (W) 14:16:58 145.980
Oscar 19 24 Jun 14:14:38 14:19:47 78° 74° (ENE) 14:24:57 437.125/150
50 SAT 24 Jun 14:24:28 14:27:49 52° 101° (E) 14:31:08 437.505
Tancredo 1 24 Jun 14:24:35 14:26:48 18° 19° (NNE) 14:29:00 437.200
ESTCUBE 1 24 Jun 14:25:36 14:28:45 19° 295° (WNW) 14:31:53 437.505/2401.250
ISS 24 Jun 14:27:22 14:29:30 16° 12° (NNE) 14:31:39 437.550
VELOX 1 24 Jun 14:31:59 14:36:22 62° 286° (WNW) 14:40:44 145.980
ITAMSAT 1 24 Jun 14:51:49 14:54:43 15° 60° (ENE) 14:57:39 435.822/435.867
DX 1 24 Jun 14:55:51 15:00:14 78° 104° (ESE) 15:04:36 434.975-435.025
Gurwin Techsat 1B 24 Jun 14:57:17 15:02:34 70° 258° (WSW) 15:07:53 435.225
SPROUT 24 Jun 15:03:54 15:07:25 25° 292° (WNW) 15:10:54 437.525
UKube-1 24 Jun 15:15:45 15:20:05 87° 99° (E) 15:24:25 .
SO-50 24 Jun 15:17:07 15:21:26 43° 117° (ESE) 15:25:44 436.795
PCSat 24 Jun 15:22:58 15:26:20 16° 318° (NW) 15:29:43 145.827
AO-7 24 Jun 15:25:34 15:33:24 48° 63° (ENE) 15:41:17 .
MOZHAYETS 4 24 Jun 15:56:13 15:58:34 14° 90° (E) 16:00:54
Oscar 19 24 Jun 15:57:42 15:59:39 12° 271° (W) 16:01:37 437.125/150
Tancredo 1 24 Jun 15:59:40 16:02:43 88° 226° (SW) 16:05:46 437.200
ITUPSAT 1 24 Jun 16:02:06 16:06:02 25° 95° (E) 16:09:56 437.325
ISS 24 Jun 16:03:21 16:06:35 50° 32° (NNE) 16:09:48 437.550
BEESAT 24 Jun 16:12:42 16:17:00 32° 97° (E) 16:21:15 436.000
ITAMSAT 1 24 Jun 16:28:22 16:33:33 73° 257° (WSW) 16:38:47 435.822/435.867
DX 1 24 Jun 16:34:49 16:35:46 11° 299° (WNW) 16:36:43 434.975-435.025
SO-50 24 Jun 16:58:21 17:02:03 24° 315° (NW) 17:05:45 436.795
AO-7 24 Jun 17:18:36 17:26:13 40° 261° (W) 17:33:57 .
CUTE-I 24 Jun 17:27:40 17:28:47 11° 56° (ENE) 17:29:55 437.470
MOZHAYETS 4 24 Jun 17:31:34 17:36:05 57° 287° (WNW) 17:40:32
KKS-1 24 Jun 17:38:02 17:41:21 20° 94° (E) 17:44:39 437.445
ITUPSAT 1 24 Jun 17:39:33 17:43:53 35° 291° (WNW) 17:48:12 437.325
ISS 24 Jun 17:40:25 17:42:49 19° 228° (SW) 17:45:12 437.550
BEESAT 24 Jun 17:50:38 17:54:37 27° 293° (WNW) 17:58:36 436.000
XW-2C 24 Jun 17:53:12 17:55:01 13° 65° (ENE) 17:56:52 145.795 - 145.815
CUBESAT XI-V 24 Jun 18:09:09 18:13:43 66° 101° (E) 18:18:17 437.345
KAITUO 1B 24 Jun 18:09:50 18:12:08 16° 66° (ENE) 18:14:25 145.475/437.950
STARS 24 Jun 18:11:14 18:14:26 19° 94° (E) 18:17:36 437.465
DOVE 4 24 Jun 18:15:37 18:19:39 55° 73° (ENE) 18:23:49 437.250
HO-68 24 Jun 18:43:49 18:49:16 24° 58° (ENE) 18:54:44 435.675
NUDT-PHONESAT 24 Jun 18:45:49 18:49:20 40° 73° (ENE) 18:52:53 437.300
XW-2F 24 Jun 18:57:24 19:01:13 73° 76° (ENE) 19:05:02 145.980 - 146.000
XW-2D 24 Jun 19:00:32 19:04:22 87° 83° (E) 19:08:14 145.860 - 145.880
CUTE-I 24 Jun 19:02:36 19:07:54 77° 74° (ENE) 19:13:15 437.470
LilacSat-2 24 Jun 19:07:23 19:11:14 74° 258° (WSW) 19:15:07 437.200
XW-2B 24 Jun 19:09:31 19:13:21 75° 258° (WSW) 19:17:12 145.730 - 145.750
KKS-1 24 Jun 19:13:51 19:18:00 38° 290° (WNW) 19:22:09 437.445
SEEDS 24 Jun 19:20:48 19:22:59 14° 64° (ENE) 19:25:10 437.485
XW-2C 24 Jun 19:25:06 19:28:48 46° 261° (W) 19:32:32 145.795 - 145.815
CUTE 1.7 + AOD 2 24 Jun 19:34:17 19:38:00 30° 70° (ENE) 19:41:44 437.475
CUBEBUG 2 24 Jun 19:34:38 19:37:43 18° 64° (ENE) 19:40:52 437.445
KAITUO 1B 24 Jun 19:42:19 19:45:50 36° 262° (W) 19:49:21 145.475/437.950
STARS 24 Jun 19:46:46 19:50:54 39° 290° (WNW) 19:55:01 437.465
CUBESAT XI-V 24 Jun 19:48:22 19:50:32 13° 298° (WNW) 19:52:41 437.345
XW-2A 24 Jun 19:53:35 19:56:40 32° 72° (ENE) 19:59:47 145.665 - 145.685
STRAND 1 24 Jun 19:54:45 19:57:31 14° 90° (E) 20:00:16 437.568
DOVE 4 24 Jun 19:56:22 19:57:46 11° 271° (W) 19:59:12 437.250
ZACube-1 24 Jun 20:08:55 20:11:17 14° 63° (ENE) 20:13:42 437.345
UWE-3 24 Jun 20:09:56 20:13:38 25° 67° (ENE) 20:17:25 435.000/436.395/437.385
AAUSAT CUBESAT 2 24 Jun 20:13:47 20:17:06 24° 69° (ENE) 20:20:26 437.432
NUDT-PHONESAT 24 Jun 20:21:33 20:23:25 13° 268° (W) 20:25:17 437.300
HO-68 24 Jun 20:29:09 20:36:20 71° 256° (WSW) 20:43:33 435.675
PCSat 24 Jun 20:43:02 20:45:44 14° 39° (NE) 20:48:27 145.827
CUTE-I 24 Jun 20:46:07 20:48:31 13° 271° (W) 20:50:55 437.470
AO-85 24 Jun 20:54:03 20:56:48 18° 112° (ESE) 20:59:29 145.980
SEEDS 24 Jun 20:54:07 20:58:13 52° 260° (W) 21:02:20 437.485
AO-73 24 Jun 21:08:13 21:12:36 50° 73° (ENE) 21:17:03 145.935
CUBEBUG 2 24 Jun 21:09:30 21:13:54 48° 261° (W) 21:18:28 437.445
CUTE 1.7 + AOD 2 24 Jun 21:10:28 21:13:50 22° 266° (W) 21:17:13 437.475
XW-2A 24 Jun 21:27:43 21:29:30 14° 267° (W) 21:31:18 145.665 - 145.685
BEESAT 3 24 Jun 21:31:09 21:34:21 24° 113° (ESE) 21:37:35 437.485
STRAND 1 24 Jun 21:32:01 21:37:09 67° 287° (WNW) 21:42:15 437.568
EO-88 24 Jun 21:32:22 21:32:50 10° 64° (ENE) 21:33:17 145.990 - 145.960
Oscar 11 24 Jun 21:36:47 21:41:08 80° 75° (ENE) 21:45:29 .
RS-15 24 Jun 21:40:09 21:51:45 56° 111° (ESE) 22:03:36 29.354- 29.394
ZACube-1 24 Jun 21:42:31 21:47:01 62° 259° (W) 21:51:35 437.345
NO-84 24 Jun 21:44:01 21:45:19 11° 120° (ESE) 21:46:38 435.350 FM
UWE-3 24 Jun 21:45:47 21:49:54 33° 264° (W) 21:54:07 435.000/436.395/437.385
AAUSAT CUBESAT 2 24 Jun 21:48:56 21:52:27 27° 264° (W) 21:55:58 437.432
DELFI C3 24 Jun 21:49:40 21:52:57 26° 70° (ENE) 21:56:16 145.870
O/OREOS (USA 219) 24 Jun 21:56:47 22:00:15 22° 102° (ESE) 22:03:44 437.305
YUBILEINY 24 Jun 22:15:33 22:23:19 37° 85° (E) 22:31:06 435.215
HO-68 24 Jun 22:23:37 22:25:13 11° 274° (W) 22:26:50 435.675
PCSat 24 Jun 22:24:42 22:30:09 71° 59° (ENE) 22:35:32 145.827
FO-29 24 Jun 22:24:46 22:31:21 29° 92° (E) 22:37:49 435.910
BEESAT 2 24 Jun 22:27:20 22:30:56 33° 115° (ESE) 22:34:34 435.950
UNISAT 6 24 Jun 22:30:37 22:32:56 14° 90° (E) 22:35:13 437.425
AO-85 24 Jun 22:33:04 22:36:54 40° 307° (NW) 22:40:38 145.980
AO-73 24 Jun 22:46:22 22:49:06 16° 269° (W) 22:51:51 145.935
EO-88 24 Jun 23:02:24 23:05:59 55° 259° (W) 23:09:38 145.990 - 145.960
BEESAT 3 24 Jun 23:08:12 23:11:47 31° 310° (NW) 23:15:24 437.485
NO-84 24 Jun 23:18:15 23:22:12 88° 325° (NW) 23:26:26 435.350 FM
M-CUBED/EXP-1 PRIME 24 Jun 23:20:38 23:24:20 67° 106° (ESE) 23:28:19 437.505
TIGRISAT 24 Jun 23:23:37 23:28:07 45° 99° (E) 23:32:30 435.000
DELFI C3 24 Jun 23:24:38 23:27:42 22° 265° (W) 23:30:46 145.870
LO-87 24 Jun 23:28:28 23:31:40 33° 72° (ENE) 23:34:56 145.935 - 145.965
PRISM 24 Jun 23:32:38 23:36:42 61° 101° (ESE) 23:40:46 437.425
O/OREOS (USA 219) 24 Jun 23:35:14 23:39:25 36° 298° (WNW) 23:43:37 437.305
ESTCUBE 1 24 Jun 23:47:15 23:51:24 38° 70° (ENE) 23:55:34 437.505/2401.250
SO-50 24 Jun 23:48:14 23:52:29 38° 51° (NE) 23:56:44 436.795
RS-15 24 Jun 23:52:41 00:04:29 51° 315° (NW) 00:16:29 29.354- 29.394
VELOX 1 24 Jun 23:55:44 23:57:13 12° 61° (ENE) 23:58:42 145.980
UNISAT 6 25 Jun 00:05:26 00:10:02 60° 287° (WNW) 00:14:31 437.425
BEESAT 2 25 Jun 00:05:27 00:08:44 24° 313° (NW) 00:12:03 435.950
FO-29 25 Jun 00:09:00 00:16:42 63° 289° (WNW) 00:24:21 435.910
PCSat 25 Jun 00:09:47 00:12:53 16° 256° (WSW) 00:15:58 145.827
YUBILEINY 25 Jun 00:11:23 00:19:48 49° 285° (WNW) 00:28:21 435.215
SPROUT 25 Jun 00:21:20 00:24:39 22° 67° (ENE) 00:27:58 437.525
NANOSAT C BR1 25 Jun 00:28:57 00:30:54 13° 91° (E) 00:32:50 145.865
AIST 2D 25 Jun 00:30:01 00:33:08 29° 97° (E) 00:36:12 435.315
50 SAT 25 Jun 00:56:51 00:59:16 19° 69° (ENE) 01:01:41 437.505
NO-84 25 Jun 00:57:08 01:00:20 21° 338° (NNW) 01:03:39 435.350 FM
M-CUBED/EXP-1 PRIME 25 Jun 00:58:04 00:58:22 10° 301° (WNW) 00:58:41 437.505
TIGRISAT 25 Jun 01:01:10 01:04:24 19° 295° (WNW) 01:07:37 435.000
LO-87 25 Jun 01:03:19 01:05:13 14° 268° (W) 01:07:09 145.935 - 145.965
POLYITAN 1 25 Jun 01:04:12 01:08:10 35° 98° (E) 01:12:05 437.675
PRISM 25 Jun 01:09:56 01:11:28 12° 297° (WNW) 01:13:00 437.425
QB50P2 25 Jun 01:14:49 01:19:01 52° 100° (E) 01:23:10 145.880/145.840
ESTCUBE 1 25 Jun 01:25:00 01:28:19 20° 266° (W) 01:31:39 437.505/2401.250
VELOX 1 25 Jun 01:28:42 01:33:03 72° 257° (WSW) 01:37:27 145.980
SO-50 25 Jun 01:29:06 01:32:43 24° 247° (WSW) 01:36:22 436.795
BUGSAT 1 25 Jun 01:33:29 01:36:27 18° 93° (E) 01:39:23 437.445
EO-79 25 Jun 01:39:34 01:43:52 89° 296° (WNW) 01:48:08 145.935-145.965
DX 1 25 Jun 01:50:56 01:55:12 66° 74° (ENE) 01:59:31 434.975-435.025
DUCHIFAT 1 25 Jun 01:54:35 01:58:51 75° 283° (WNW) 02:03:04 145.980
SPROUT 25 Jun 01:56:33 02:00:21 32° 263° (W) 02:04:13 437.525
FO-29 25 Jun 01:56:37 02:00:14 14° 308° (NW) 02:03:53 435.910
NANOSAT C BR1 25 Jun 02:02:45 02:06:55 53° 287° (WNW) 02:11:03 145.865
AIST 2D 25 Jun 02:03:55 02:06:05 16° 292° (WNW) 02:08:14 435.315
UKube-1 25 Jun 02:09:42 02:13:58 72° 74° (ENE) 02:18:15 .
RS-15 25 Jun 02:11:29 02:20:58 24° 347° (NNW) 02:30:25 29.354- 29.394
Oscar 19 25 Jun 02:26:44 02:31:03 27° 95° (E) 02:35:21 437.125/150
50 SAT 25 Jun 02:29:13 02:31:55 22° 264° (W) 02:34:39 437.505
NO-84 25 Jun 02:37:20 02:39:18 13° 359° (N) 02:41:19 435.350 FM
POLYITAN 1 25 Jun 02:40:33 02:43:42 20° 294° (WNW) 02:46:49 437.675
QB50P2 25 Jun 02:51:59 02:54:20 15° 296° (WNW) 02:56:42 145.880/145.840
MOZHAYETS 4 25 Jun 02:58:15 03:00:47 15° 63° (ENE) 03:03:19
BUGSAT 1 25 Jun 03:07:59 03:11:55 38° 289° (WNW) 03:15:50 437.445
ITUPSAT 1 25 Jun 03:08:36 03:12:45 30° 67° (ENE) 03:16:54 437.325
Gurwin Techsat 1B 25 Jun 03:13:34 03:18:44 47° 100° (E) 03:23:49 435.225
BEESAT 25 Jun 03:18:48 03:23:12 38° 69° (ENE) 03:27:37 436.000
AO-7 25 Jun 03:30:11 03:33:27 13° 87° (E) 03:36:43 .
DX 1 25 Jun 03:30:49 03:31:49 11° 270° (W) 03:32:48 434.975-435.025
Oscar 19 25 Jun 04:05:46 04:10:25 36° 292° (WNW) 04:15:02 437.125/150
NO-84 25 Jun 04:15:11 04:18:20 19° 20° (NNE) 04:21:29 435.350 FM
RS-15 25 Jun 04:29:06 04:39:12 28° 23° (NNE) 04:48:59 29.354- 29.394
MOZHAYETS 4 25 Jun 04:32:50 04:37:25 61° 259° (W) 04:42:02
KKS-1 25 Jun 04:36:16 04:39:24 19° 65° (ENE) 04:42:33 437.445
ITAMSAT 1 25 Jun 04:41:24 04:46:18 39° 98° (E) 04:51:11 435.822/435.867
ITUPSAT 1 25 Jun 04:46:19 04:50:30 30° 264° (W) 04:54:43 437.325
Gurwin Techsat 1B 25 Jun 04:54:13 04:58:20 23° 296° (WNW) 05:02:26 435.225
BEESAT 25 Jun 04:57:17 05:01:03 23° 265° (W) 05:04:50 436.000
STARS 25 Jun 05:08:06 05:11:02 18° 64° (ENE) 05:13:58 437.465
CUBESAT XI-V 25 Jun 05:11:58 05:16:33 64° 74° (ENE) 05:21:08 437.345
AO-7 25 Jun 05:19:11 05:27:35 72° 106° (ESE) 05:35:55 .
AO-85 25 Jun 05:23:56 05:26:49 18° 45° (NE) 05:29:48 145.980
BEESAT 3 25 Jun 05:47:51 05:50:33 17° 43° (NE) 05:53:12 437.485
NO-84 25 Jun 05:52:16 05:56:39 65° 39° (NE) 06:00:53 435.350 FM
KKS-1 25 Jun 06:11:29 06:15:39 41° 262° (W) 06:19:51 437.445
DOVE 4 25 Jun 06:14:23 06:17:43 18° 92° (E) 06:21:07 437.250
ITAMSAT 1 25 Jun 06:21:15 06:25:33 26° 295° (WNW) 06:29:51 435.822/435.867
RS-15 25 Jun 06:42:24 06:54:36 68° 52° (NE) 07:06:08 29.354- 29.394
LilacSat-2 25 Jun 06:42:43 06:43:59 11° 91° (E) 06:45:15 437.200
STARS 25 Jun 06:42:50 06:47:01 44° 261° (W) 06:51:14 437.465
XW-2B 25 Jun 06:44:22 06:45:24 11° 90° (E) 06:46:27 145.730 - 145.750
BEESAT 2 25 Jun 06:45:00 06:48:16 23° 47° (NE) 06:51:30 435.950
CUBESAT XI-V 25 Jun 06:52:19 06:54:19 13° 270° (W) 06:56:20 437.345
XW-2C 25 Jun 06:58:30 07:01:02 17° 93° (E) 07:03:33 145.795 - 145.815
AO-85 25 Jun 07:03:24 07:07:26 51° 241° (WSW) 07:11:43 145.980
STRAND 1 25 Jun 07:10:09 07:14:02 22° 64° (ENE) 07:17:55 437.568
AO-7 25 Jun 07:12:54 07:19:37 28° 305° (NW) 07:26:21 .
KAITUO 1B 25 Jun 07:13:54 07:16:40 20° 94° (E) 07:19:25 145.475/437.950
CUTE-I 25 Jun 07:20:03 07:24:46 30° 96° (E) 07:29:27 437.470
BEESAT 3 25 Jun 07:24:31 07:28:26 53° 241° (WSW) 07:32:16 437.485
NO-84 25 Jun 07:30:49 07:33:50 18° 236° (WSW) 07:36:45 435.350 FM
NUDT-PHONESAT 25 Jun 07:49:45 07:53:24 56° 100° (E) 07:57:00 437.300
DOVE 4 25 Jun 07:50:51 07:55:36 53° 287° (WNW) 08:00:35 437.250
HO-68 25 Jun 07:57:57 08:03:24 23° 92° (E) 08:08:48 435.675
XW-2F 25 Jun 08:03:32 08:07:17 73° 285° (WNW) 08:11:00 145.980 - 146.000
O/OREOS (USA 219) 25 Jun 08:05:45 08:10:00 41° 63° (ENE) 08:14:14 437.305
XW-2D 25 Jun 08:07:11 08:10:55 60° 285° (WNW) 08:14:36 145.860 - 145.880
LilacSat-2 25 Jun 08:14:53 08:18:31 46° 287° (WNW) 08:22:08 437.200
XW-2B 25 Jun 08:16:14 08:19:53 48° 286° (WNW) 08:23:29 145.730 - 145.750
BEESAT 2 25 Jun 08:22:22 08:26:07 36° 244° (WSW) 08:29:49 435.950
YUBILEINY 25 Jun 08:26:14 08:31:47 18° 61° (ENE) 08:37:18 435.215
Tancredo 1 25 Jun 08:30:39 08:33:00 21° 134° (SE) 08:35:22 437.200
XW-2C 25 Jun 08:31:57 08:35:17 30° 289° (WNW) 08:38:35 145.795 - 145.815
SEEDS 25 Jun 08:38:13 08:41:38 24° 95° (E) 08:45:02 437.485
FO-29 25 Jun 08:41:28 08:43:10 11° 50° (NE) 08:44:54 435.910
ISS 25 Jun 08:44:26 08:46:23 15° 131° (SE) 08:48:21 437.550
KAITUO 1B 25 Jun 08:47:32 08:50:39 25° 290° (WNW) 08:53:43 145.475/437.950
XW-2A 25 Jun 08:47:49 08:50:57 33° 98° (E) 08:54:02 145.665 - 145.685
STRAND 1 25 Jun 08:47:56 08:52:51 47° 260° (W) 08:57:50 437.568
CUTE 1.7 + AOD 2 25 Jun 08:54:11 08:58:20 60° 100° (E) 09:02:28 437.475
RS-15 25 Jun 08:55:49 09:06:13 37° 255° (WSW) 09:16:13 29.354- 29.394
CUTE-I 25 Jun 08:59:58 09:04:48 35° 292° (WNW) 09:09:37 437.470
CUBEBUG 2 25 Jun 09:00:23 09:04:45 37° 96° (E) 09:09:00 437.445
Oscar 11 25 Jun 09:25:26 09:27:51 15° 91° (E) 09:30:15 .
NUDT-PHONESAT 25 Jun 09:26:23 09:26:47 10° 296° (WNW) 09:27:11 437.300
UNISAT 6 25 Jun 09:29:49 09:31:55 13° 61° (ENE) 09:34:03 437.425
AAUSAT CUBESAT 2 25 Jun 09:30:14 09:34:10 43° 98° (E) 09:38:05 437.432
ZACube-1 25 Jun 09:31:27 09:35:11 26° 94° (E) 09:38:49 437.345
UWE-3 25 Jun 09:34:59 09:39:29 51° 99° (E) 09:43:50 435.000/436.395/437.385
HO-68 25 Jun 09:44:32 09:51:39 67° 290° (WNW) 09:58:42 435.675
O/OREOS (USA 219) 25 Jun 09:46:00 09:49:03 18° 259° (W) 09:52:06 437.305
Tancredo 1 25 Jun 10:05:33 10:08:25 39° 330° (NNW) 10:11:20 437.200
M-CUBED/EXP-1 PRIME 25 Jun 10:07:04 10:10:22 84° 76° (ENE) 10:13:39 437.505
SEEDS 25 Jun 10:13:46 10:17:16 27° 291° (WNW) 10:20:45 437.485
ISS 25 Jun 10:19:17 10:22:32 61° 327° (NNW) 10:25:48 437.550
FO-29 25 Jun 10:20:40 10:26:35 62° 71° (ENE) 10:33:21 435.910
YUBILEINY 25 Jun 10:21:08 10:30:02 84° 83° (E) 10:38:50 435.215
PRISM 25 Jun 10:21:38 10:25:26 41° 72° (ENE) 10:29:15 437.425
XW-2A 25 Jun 10:21:40 10:23:23 13° 293° (WNW) 10:25:04 145.665 - 145.685
TIGRISAT 25 Jun 10:21:46 10:26:01 39° 71° (ENE) 10:30:23 435.000
CUTE 1.7 + AOD 2 25 Jun 10:31:56 10:33:39 12° 297° (WNW) 10:35:21 437.475
AO-73 25 Jun 10:32:17 10:36:44 76° 284° (WNW) 10:41:03 145.935
EO-88 25 Jun 10:32:55 10:34:21 12° 91° (E) 10:35:46 145.990 - 145.960
CUBEBUG 2 25 Jun 10:37:25 10:41:07 23° 293° (WNW) 10:44:44 437.445
Oscar 11 25 Jun 11:00:05 11:04:15 47° 287° (WNW) 11:08:22 .
DELFI C3 25 Jun 11:00:32 11:04:18 42° 99° (E) 11:08:03 145.870
UNISAT 6 25 Jun 11:03:25 11:07:59 71° 259° (WSW) 11:12:40 437.425
AIST 2D 25 Jun 11:05:52 11:07:16 12° 66° (ENE) 11:08:38 435.315
AAUSAT CUBESAT 2 25 Jun 11:06:49 11:09:16 16° 294° (WNW) 11:11:43 437.432
ZACube-1 25 Jun 11:07:33 11:11:25 29° 291° (WNW) 11:15:11 437.345
